Regional Weather Roundup
Issued by NWS Jackson, KY

Home | Current Version | Previous Version | Text Only | Print | Product List | Glossary On
Versions: 1 2 3 4 5 6 7 8 9 10 11 12 13 14 15 16 17 18 19 20 21 22 23 24 25 26 27 28 29 30 31 32 33 34 35 36 37 38 39 40 41 42 43 44 45 46 47 48 49
000
ASUS43 KJKL 300110
RWRJKL

EAST KENTUCKY HOURLY WEATHER ROUNDUP
NATIONAL WEATHER SERVICE JACKSON KY
900 PM EDT SUN MAR 29 2015

NOTE: "FAIR" INDICATES FEW OR NO CLOUDS BELOW 12,000 FEET WITH
NO SIGNIFICANT WEATHER AND/OR OBSTRUCTIONS TO VISIBILITY.

* THESE REPORTS ARE NOT UNDER NWS QUALITY CONTROL AND MAY NOT
  REPORT WEATHER SUCH AS PRECIPITATION AND FOG.

KYZ079-080-083-085-087-088-110-112-115-119-120-300200
...EASTERN KENTUCKY...

CITY           SKY/WX    TMP DP  RH WIND       PRES   REMARKS
JACKSON        PTCLDY    52  10  18 VRB3      30.02S
LONDON         PTCLDY    54  13  19 S9        30.04F
SOMERSET*      CLOUDY    54  18  24 S8G16     30.05S
MONTICELLO*    PTCLDY    57  23  27 S14       30.06F
MIDDLESBORO*   CLEAR     54  18  24 S8        30.09R
HAZARD APT*    PTCLDY    54  10  17 SW8G16    30.03F
PIKEVILLE APT* PTCLDY    50   5  16 S10G18    30.01F
BIG SANDY*     CLOUDY    53   8  16 S8        30.01F
MOREHEAD APT*  CLOUDY    52  12  20 SW7       30.03R
$$

KYZ035-036-041-042-044-050-067-078-099-300200
...CENTRAL KENTUCKY...

CITY           SKY/WX    TMP DP  RH WIND       PRES   REMARKS
MT STERLING*   CLOUDY    54  19  26 SW10      30.03R
FLEMING/MASON* CLOUDY    50  19  29 SW5       30.02R
DANVILLE*      MOCLDY    55  27  33 SW13G23   30.02S
RICHMOND*      MOCLDY    54  14  20 S9        30.02R
LEXINGTON      CLOUDY    54  21  27 SW7       30.01R
FRANKFORT      CLOUDY    53  20  27 SW5       30.00R
$$

KYZ091>093-OHZ055-061-077-WVZ005-015-034-035-042-300200
...SOUTHERN OHIO/WEST VIRGINIA...

CITY           SKY/WX    TMP DP  RH WIND       PRES   REMARKS
COVINGTON      LGT RAIN  49  26  41 S12       29.94F
COLUMBUS       CLOUDY    44  21  40 S18G25    29.99R
DAYTON         LGT RAIN  41  34  76 SW7       29.95R
WILMINGTON     LGT RAIN  46  25  43 SW21G38   29.94F
HUNTINGTON     CLOUDY    51   5  15 S8        29.98S
CHARLESTON     CLOUDY    51   5  15 S6        29.98F
PINEVILLE*     MOCLDY    44  24  46 MISG      30.10F
BECKLEY        MOCLDY    46   1  15 S10       30.05F
BLUEFIELD      PTCLDY    47   2  15 S8G24     30.07F
$$

VAZ002-007-008-TNZ017-027-036-066-071-300200
...SOUTHWEST VIRGINIA/EAST TENNESSEE...

CITY           SKY/WX    TMP DP  RH WIND       PRES   REMARKS
WISE*          PTCLDY    46   5  18 S15G24    30.06F
JONESVILLE*    MOCLDY    45  19  36 CALM      30.12S
ABINGDON*      CLEAR     43  18  36 CALM      30.11S
BRISTOL        PTCLDY    44  20  38 CALM      30.12S
KNOXVILLE      PTCLDY    53  25  33 SW15      30.12F
OAK RIDGE      CLOUDY    57  22  25 SW9G17    30.13F
CROSSVILLE     PTCLDY    52  22  30 S10G18    30.10F
NASHVILLE      PTCLDY    56  36  47 S16       30.05S
$$

...KEY TO REMARKS...
VSB - VISIBILITY IN MILES
WCI - WIND CHILL INDEX
HX  - HEAT INDEX

$$


USA.gov is the U.S. government's official web portal to all federal, state and local government web resources and services.